Flag for U.S.A. Weather past 2 weeks in Vista, California, U.S.A.

Now
64 °F

Sunny.


Feels Like: 64 °F
Forecast: 51 / 79 °F
Wind: 9 mph from West

Location: McClellan-Palomar Airport

Current Time: Apr 26, 2015 at 6:11:45 PM

Latest Report: Apr 26, 2015 at 4:53 PM


Visibility: 10 mi

Pressure: 29.92 "Hg

Humidity: 65%

Dew point: 52 °F

Location of VistaLocation

Historic Weather in Vista — Graph

°F

Vista temperature yesterday

Maximum temperature yesterday: 63 °F (at 2:53 PM)
Minimum temperature yesterday: 59 °F (at 12:53 AM)
Average temperature yesterday: 60 °F

Past Weeks' High & Low Weather Summary

 TemperatureHumidityPressure
High77 °F (Apr 16, 10:53 AM)97% (Apr 19, 5:53 AM)30.09 "Hg (Apr 19, 5:53 AM)
Low53 °F (Apr 18, 5:53 AM)6% (Apr 16, 10:53 AM)29.85 "Hg (Apr 20, 5:53 PM)
Average62 °F66%29.95 "Hg
* Reported Apr 11 4:53 PM — Apr 26 4:53 PM, Vista, Weather by CustomWeather, © 2015

Note: Actual official high and low records may vary slightly from our data, if they occured in-between our weather recording intervals... More about our weather records

Advertising

Vista weather history for previous 24 hours

 ConditionsComfort  
Time TempWeatherWind HumidityBarometerVisibility
4:53 PM
Sun, Apr 26
64 °FSunny.9 mph65%29.92 "Hg10 mi
3:53 PM65 °FSunny.10 mph61%29.94 "Hg10 mi
2:53 PM65 °FSunny.10 mph59%29.95 "Hg10 mi
1:53 PM65 °FSunny.9 mph61%29.97 "Hg10 mi
12:53 PM65 °FSunny.9 mph59%29.97 "Hg10 mi
11:53 AM65 °FSunny.10 mph59%29.99 "Hg10 mi
10:53 AM63 °FScattered clouds.8 mph60%30.00 "Hg10 mi
9:53 AM62 °FMostly cloudy.6 mph65%30.00 "Hg10 mi
8:53 AM61 °FPassing clouds.No wind70%29.99 "Hg10 mi
7:53 AM58 °FPassing clouds.3 mph78%29.98 "Hg10 mi
6:53 AM56 °FPassing clouds.5 mph84%29.97 "Hg10 mi
5:53 AM57 °FOvercast.3 mph81%29.95 "Hg10 mi
4:53 AM57 °FOvercast.No wind81%29.93 "Hg10 mi
3:53 AM58 °FMostly cloudy.5 mph81%29.93 "Hg10 mi
2:53 AM58 °FMostly cloudy.5 mph78%29.92 "Hg10 mi
1:53 AM59 °FOvercast.3 mph75%29.93 "Hg10 mi
12:53 AM59 °FOvercast.No wind75%29.93 "Hg10 mi
11:53 PM
Sat, Apr 25
59 °FOvercast.3 mph75%29.93 "Hg10 mi
11:03 PM59 °FOvercast.7 mph72%29.94 "Hg10 mi
10:53 PM59 °FOvercast.3 mph72%29.93 "Hg10 mi
9:53 PM59 °FMostly cloudy.3 mph78%29.93 "Hg10 mi
8:53 PM59 °FMostly cloudy.8 mph81%29.91 "Hg10 mi
8:04 PM60 °FBroken clouds.17 mph78%29.90 "Hg10 mi
7:53 PM60 °FPartly sunny.10 mph83%29.90 "Hg10 mi
6:53 PM61 °FBroken clouds.17 mph83%29.89 "Hg10 mi
Weather by CustomWeather, © 2015

See weather overviewHow to use our weather pages